Location: Newark
(49.8348°N, 24.0280°E)
Time: 18:04:23
(UTC+00:00)

Transit 2A - Pass Details

Date: 26 January 2020
Orbit: 600 x 959 km, 66.7° (Epoch: 22 February)

Event Time Altitude Azimuth Distance (km) Brightness Sun altitude
Rises 19:00:51 0° 232° (SW) 2,871 9.4 -37.2°
Enters shadow 19:02:07 - 234° (SW) 2,363 8.9 -37.4°
Reaches altitude 10° 19:03:10 10° 238° (WSW) 1,951 - -37.6°
Maximum altitude 19:07:22 47° 313° (NW) 796 - -38.2°
Drops below altitude 10° 19:11:37 10° 28° (NNE) 1,970 - -38.9°
Sets 19:13:59 0° 35° (NE) 2,902 - -39.3°
